Starlink 35411

operational
NORAD ID: 66560 Int'l Des: 2025-268 Owner: SPXS Country: US Constellation: starlink
LEOCIRCULAR

Über Starlink 35411

Beschreibung wird geladen...

Live-Position

3D-Globus wird geladen...

Nächste Überflüge

Höhenverlauf

Altitude vs Time

uPlot chart will show altitude changes over time

Zweizeiliger Elementsatz

1 66560U 25268D 26062.24562870 .00049248 00000-0 17836-2 0 9990
2 66560 42.9995 23.5020 0001269 244.8623 115.2097 15.27647227 16973
Epoch: 3. März 2026 • Age: 32 hours

Aktueller Status

Höhe 489.1 km
Geschwindigkeit 7.62 km/s
Subsatellitenpunkt -28.18°S, 49.52°W
Startdatum 21. Nov. 2025
Alter 0.2 years
Typ internet

Technische Details

Klassifizierung Payload
Masse 575.00 kg
Trockenmasse 530.00 kg
Gesamtmasse 575.00 kg
Länge 0.30 m
Durchmesser 4.10 m
Spannweite 29.00 m
Form Box + pan
Hersteller SPXS
Bus-Typ Starlink V2MO
Phasenstatus In Orbit
Besitzer/Staat SPXS/US

Große Konstellationen

Loading constellations...